Content
SEND FEEDBACK

Daily
Averages
Monthly
Summary
Honduras

TEGUCIGALPA, HONDURAS


Home > Central America > Honduras
Elevation: 3260 feet     Latitude: 14 03N     Longitude: 087 13W

WEATHER
 
SELECT A DAY
Number of Records: 52,058;   Date Range: 7/9/96 - 4/22/14
 
SHARE

PRINT THIS DATA

[ ← Previous Day ]
WEATHER ALMANAC - NOVEMBER 23, 2013
[ Next Day → ]
[ °C ]   °F
Weather ElementAverageHighLow
Temperature70.5 °F80.6 °F (3:00 pm)64.4 °F (12:00 am)
Dewpoint64.2 °F66.2 °F (8:00 pm)60.8 °F (4:00 pm)
Humidity81 %100 % (1:00 am)54 % (12:00 pm)
Barometer30.03 in30.12 in (8:00 am)29.85 in (12:00 pm)
Wind Speed7.2 mph13.8 mph (5:00 pm)
Weather ElementAverage
Visibility5.2 mi
Wind DirectionESE (114.5 °)

Weather ElementTotal
Precipitation---
Cooling Degree Days7.5 (Base 65)
Growing Degree Days22.5 (Base 50)
Averaged from 31 records on November 23, 2013
WEATHER CONDITIONS BREAKOUT
WIND DIRECTION BREAKOUT
WEATHER BY HOUR - NOVEMBER 23, 2013
[ °C ]   °F
Local TimeTemperatureDewpointHumidityBarometerVisibilityWind DirectionWind SpeedGust SpeedPrecipitationEventsConditions
12:00 AM64.4 °F62.6 °F94 %30.09 in6.2 miCalmMostly Cloudy
1:00 AM64.4 °F64.4 °F100 %30.01 in5.0 miCalmMostly Cloudy
2:00 AM66.2 °F64.4 °F94 %30.04 in3.1 miNNE (20°)3.5 mphLight Drizzle
3:00 AM66.0 °F64.0 °F92 %29.89 in6.0 miCalmMostly Cloudy
3:00 AM66.2 °F64.4 °F94 %30.04 in3.7 miNorth (10°)3.5 mphMostly Cloudy
4:00 AM66.2 °F64.4 °F94 %30.04 in3.7 miNorth (360°)9.2 mphMostly Cloudy
5:00 AM66.2 °F64.4 °F94 %30.06 in3.7 miNorth (360°)6.9 mphScattered Clouds
6:00 AM66.2 °F64.4 °F94 %30.09 in3.1 miNorth (10°)3.5 mphMostly Cloudy
6:00 AM66.0 °F65.0 °F95 %29.93 in6.0 miNorth (10°)3.5 mphMostly Cloudy
7:00 AM66.2 °F64.4 °F94 %30.09 in3.1 miNNE (30°)4.6 mphMostly Cloudy
8:00 AM69.8 °F64.4 °F83 %30.12 in6.2 miNNE (20°)5.8 mphMostly Cloudy
9:00 AM71.0 °F65.0 °F74 %29.93 in6.0 miNorth (10°)8.1 mphHaze
9:00 AM71.6 °F64.4 °F78 %30.12 in6.2 miNorth (10°)8.1 mphScattered Clouds
10:00 AM71.6 °F64.4 °F78 %30.09 in6.2 miNorth (10°)8.1 mphMostly Cloudy
11:00 AM75.2 °F64.4 °F69 %30.09 in6.2 miNorth (10°)9.2 mphMostly Cloudy
12:00 PM78.8 °F64.4 °F61 %30.06 in6.2 miNorth (10°)10.4 mphMostly Cloudy
12:00 PM78.0 °F64.0 °F54 %29.85 in6.0 miNorth (10°)10.4 mphHaze
1:00 PM77.0 °F64.4 °F65 %30.06 in6.2 miNorth (10°)10.4 mphScattered Clouds
2:00 PM78.8 °F62.6 °F57 %30.01 in6.2 miNNE (30°)11.5 mphMostly Cloudy
3:00 PM80.6 °F62.6 °F54 %30.01 in6.2 miNorth (360°)12.7 mphMostly Cloudy
4:00 PM78.8 °F60.8 °F54 %30.01 in6.2 miNorth (350°)12.7 mphMostly Cloudy
5:00 PM75.2 °F60.8 °F61 %30.01 in6.2 miNorth (350°)13.8 mphMostly Cloudy
6:00 PM73.4 °F64.4 °F73 %30.01 in6.2 miENE (60°)4.6 mphScattered Clouds
6:00 PM73.0 °F64.0 °F67 %30.01 in6.0 mi°4.6 mphHaze
7:00 PM71.6 °F64.4 °F78 %30.04 in6.2 miNorth (360°)9.2 mphScattered Clouds
8:00 PM68.0 °F66.2 °F94 %30.01 in4.3 miNorth (350°)9.2 mphRainLight Rain
8:33 PM68.0 °F66.2 °F94 %30.09 in3.7 miNE (40°)9.2 mphThunderstorm
9:00 PM68.0 °F65.0 °F89 %29.94 in4.0 miNE (40°)9.2 mphRain-ThunderstormThunderstorms and Rain
9:00 PM68.0 °F66.2 °F94 %30.09 in3.7 miNE (40°)9.2 mphRain-ThunderstormLight Thunderstorms and Rain
10:00 PM66.2 °F64.4 °F94 %30.09 in3.7 miNorth (360°)6.9 mphRainLight Rain
11:00 PM66.2 °F64.4 °F94 %30.06 in5.0 miEast (90°)4.6 mphMostly Cloudy
Hourly data recorded from MHTG, located 0.73 miles away from Tegucigalpa, Honduras







STORIES FROM OUR PARTNERS